SR8WXB-1 Weather Reports


time (UTC)temp
F
wind
direction
speed
knots
gust
knots
rain 1hr
in
rain 24hr
in
rain mn
in
humidity
%
barometer
mb
20260506114648 68 251 31.3 40.0 0.00 0.00 0.00 100 938.7
20260506114245 69 250 26.1 33.0 0.00 0.00 0.00 100 938.7
20260506113845 69 251 27.8 33.9 0.00 0.00 0.00 100 938.6
20260506113445 69 245 29.5 35.6 0.00 0.00 0.00 100 938.6
20260506113042 70 248 28.7 34.8 0.00 0.00 0.00 100 938.6
20260506112642 70 244 25.2 37.4 0.00 0.00 0.00 100 938.8
20260506112239 69 243 19.1 26.9 0.00 0.00 0.00 100 938.8
20260506111839 68 245 20.9 30.4 0.00 0.00 0.00 100 938.8
20260506111439 68 247 27.8 38.2 0.00 0.00 0.00 100 938.8
20260506111039 68 249 24.3 33.0 0.00 0.00 0.00 100 938.8
20260506110639 67 245 26.1 34.8 0.00 0.00 0.00 100 938.8
20260506110236 66 245 25.2 34.8 0.00 0.00 0.00 100 938.8
20260506105836 66 243 30.4 38.2 0.00 0.00 0.00 100 938.7
20260506105436 66 245 31.3 40.0 0.00 0.00 0.00 100 938.6
20260506105036 66 241 33.9 46.9 0.00 0.00 0.00 100 938.7
20260506104636 66 247 33.0 42.6 0.00 0.00 0.00 100 938.6
20260506104233 66 246 38.2 53.9 0.00 0.00 0.00 100 938.8
20260506103834 67 245 26.9 40.8 0.00 0.00 0.00 100 938.8
20260506103434 67 247 27.8 37.4 0.00 0.00 0.00 100 938.9
20260506103034 66 248 26.1 33.0 0.00 0.00 0.00 100 938.9
20260506102634 66 247 26.1 36.5 0.00 0.00 0.00 100 939.0
20260506102220 66 243 23.5 40.0 0.00 0.00 0.00 100 938.9
20260506101819 66 244 25.2 36.5 0.00 0.00 0.00 100 938.9
20260506101020 65 246 31.3 46.9 0.00 0.00 0.00 100 938.9
20260506100620 65 248 26.1 35.6 0.00 0.00 0.00 100 938.8
20260506100217 65 248 31.3 40.8 0.00 0.00 0.00 100 938.9
20260506095817 65 249 26.9 35.6 0.00 0.00 0.00 100 938.9
20260506095417 65 246 21.7 30.4 0.00 0.00 0.00 100 938.9
20260506095017 65 247 23.5 34.8 0.00 0.00 0.00 100 938.9
20260506094617 66 247 27.8 36.5 0.00 0.00 0.00 100 938.9
20260506094214 66 244 24.3 34.8 0.00 0.00 0.00 100 938.9
20260506093813 67 248 20.9 25.2 0.00 0.00 0.00 100 938.9
20260506093414 67 248 23.5 28.7 0.00 0.00 0.00 100 939.0
20260506093014 67 250 27.8 33.9 0.00 0.00 0.00 100 938.9
20260506092610 66 248 26.9 33.0 0.00 0.00 0.00 100 938.9
20260506092208 66 250 25.2 30.4 0.00 0.00 0.00 100 938.9
20260506091808 67 250 28.7 40.0 0.00 0.00 0.00 100 938.9
20260506091408 67 245 31.3 46.1 0.00 0.00 0.00 100 938.8
20260506091008 67 254 26.1 37.4 0.00 0.00 0.00 100 938.7
20260506090608 67 247 24.3 32.2 0.00 0.00 0.00 100 938.8
20260506090205 67 244 23.5 34.8 0.00 0.00 0.00 100 938.8
20260506085805 66 243 20.0 29.5 0.00 0.00 0.00 100 938.8
20260506085405 66 248 24.3 35.6 0.00 0.00 0.00 100 938.7
20260506085005 66 248 23.5 36.5 0.00 0.00 0.00 100 938.8
20260506084605 66 243 21.7 39.1 0.00 0.00 0.00 100 938.7
20260506084202 65 242 21.7 31.3 0.00 0.00 0.00 100 938.8
20260506083802 65 243 20.9 26.9 0.00 0.00 0.00 100 938.7
20260506083402 64 243 20.0 27.8 0.00 0.00 0.00 100 938.7
20260506083002 64 241 19.1 24.3 0.00 0.00 0.00 100 938.7
20260506082602 64 244 20.0 28.7 0.00 0.00 0.00 100 938.6
20260506082159 64 245 22.6 36.5 0.00 0.00 0.00 100 938.7
20260506081759 65 242 20.0 27.8 0.00 0.00 0.00 100 938.5
20260506081359 65 242 19.1 25.2 0.00 0.00 0.00 100 938.6
20260506081000 64 243 20.0 26.1 0.00 0.00 0.00 100 938.5
20260506080559 64 244 23.5 31.3 0.00 0.00 0.00 100 938.5
20260506080156 64 243 18.2 25.2 0.00 0.00 0.00 100 938.5
20260506072945 65 239 18.2 26.9 0.00 0.00 0.00 100 938.3
20260506072545 64 239 14.8 22.6 0.00 0.00 0.00 100 938.3
20260506072138 64 238 17.4 23.5 0.00 0.00 0.00 100 938.3
20260506071738 65 242 20.0 26.1 0.00 0.00 0.00 100 938.3
20260506071338 64 242 17.4 23.5 0.00 0.00 0.00 100 938.3
20260506070938 64 241 17.4 26.1 0.00 0.00 0.00 100 938.3
20260506070538 64 242 17.4 24.3 0.00 0.00 0.00 100 938.3
20260506070135 64 241 16.5 24.3 0.00 0.00 0.00 100 938.2
20260506062130 62 239 13.9 20.0 0.00 0.00 0.00 100 938.2
20260506061730 62 243 17.4 25.2 0.00 0.00 0.00 100 938.1
20260506061330 62 243 16.5 24.3 0.00 0.00 0.00 100 938.1
20260506060930 62 243 15.6 21.7 0.00 0.00 0.00 100 938.1
20260506060530 62 240 15.6 24.3 0.00 0.00 0.00 100 938.1
20260506060127 62 240 16.5 23.5 0.00 0.00 0.00 100 938.1
20260506051318 60 239 11.3 17.4 0.00 0.00 0.00 100 938.1
20260506050906 60 233 10.4 15.6 0.00 0.00 0.00 100 938.0
20260506050507 59 232 8.7 13.9 0.00 0.00 0.00 100 938.0
20260506050104 59 231 9.6 15.6 0.00 0.00 0.00 100 938.1
20260506044904 58 231 7.8 13.0 0.00 0.00 0.00 100 938.1
20260506044504 58 230 7.0 12.2 0.00 0.00 0.00 100 938.0
20260506044101 58 228 9.6 12.2 0.00 0.00 0.00 100 938.0
20260506043701 58 229 9.6 12.2 0.00 0.00 0.00 100 938.0
20260506043301 58 227 8.7 11.3 0.00 0.00 0.00 100 938.0
20260506042901 58 227 10.4 13.0 0.00 0.00 0.00 100 938.0
20260506042501 58 228 13.9 15.6 0.00 0.00 0.00 100 938.0
20260506042058 58 229 13.9 16.5 0.00 0.00 0.00 100 938.0
20260506041658 58 230 13.9 18.2 0.00 0.00 0.00 100 938.0
20260506041258 58 231 13.0 14.8 0.00 0.00 0.00 100 938.0
20260506040858 57 230 13.9 16.5 0.00 0.00 0.00 100 938.0
20260506040458 57 230 14.8 17.4 0.00 0.00 0.00 100 938.0
20260506040055 57 230 13.0 17.4 0.00 0.00 0.00 100 938.0
20260506035656 57 230 14.8 16.5 0.00 0.00 0.00 100 938.0
20260506035256 58 234 14.8 17.4 0.00 0.00 0.00 100 938.0
20260506034456 58 240 15.6 17.4 0.00 0.00 0.00 100 938.0
20260506034053 58 239 15.6 18.2 0.00 0.00 0.00 100 938.0
20260506033652 58 237 16.5 20.0 0.00 0.00 0.00 100 938.0
20260506033252 58 230 17.4 21.7 0.00 0.00 0.00 100 937.9
20260506032852 57 231 16.5 19.1 0.00 0.00 0.00 100 937.9
20260506032452 57 231 15.6 20.9 0.00 0.00 0.00 100 937.9
20260506032049 57 232 15.6 18.2 0.00 0.00 0.00 100 938.0
20260506031650 56 221 13.9 15.6 0.00 0.00 0.00 100 937.9
20260506031246 56 221 13.9 15.6 0.00 0.00 0.00 100 938.0
20260506030846 56 221 13.9 15.6 0.00 0.00 0.00 100 938.0
20260506030446 57 221 10.4 13.9 0.00 0.00 0.00 100 937.9
20260506030043 57 226 12.2 15.6 0.00 0.00 0.00 100 937.9
20260506025643 57 227 10.4 13.9 0.00 0.00 0.00 100 937.9
20260506025243 57 225 10.4 13.0 0.00 0.00 0.00 100 937.9
20260506024843 57 222 8.7 13.0 0.00 0.00 0.00 100 937.9
20260506024444 57 228 10.4 12.2 0.00 0.00 0.00 100 937.8
20260506024041 57 227 10.4 14.8 0.00 0.00 0.00 100 937.9
20260506023641 58 235 11.3 13.0 0.00 0.00 0.00 100 937.9
20260506023232 58 233 13.9 16.5 0.00 0.00 0.00 100 937.9
20260506022832 58 236 12.2 15.6 0.00 0.00 0.00 100 937.9
20260506022432 59 237 12.2 18.2 0.00 0.00 0.00 100 937.9
20260506022029 59 236 11.3 16.5 0.00 0.00 0.00 100 937.9
20260506021629 59 235 12.2 16.5 0.00 0.00 0.00 100 937.9
20260506021229 58 237 12.2 17.4 0.00 0.00 0.00 100 937.9
20260506020829 58 237 10.4 19.1 0.00 0.00 0.00 100 937.9
20260506020430 58 233 13.9 20.0 0.00 0.00 0.00 100 937.9
20260506020027 58 234 17.4 19.1 0.00 0.00 0.00 100 937.9
20260506015627 59 234 13.9 17.4 0.00 0.00 0.00 100 937.9
20260506015227 59 235 11.3 16.5 0.00 0.00 0.00 100 938.0
20260506014827 59 236 11.3 15.6 0.00 0.00 0.00 100 937.9
20260506014427 59 233 11.3 18.2 0.00 0.00 0.00 100 937.9
20260506014024 59 236 10.4 15.6 0.00 0.00 0.00 100 938.0
20260506013624 59 235 10.4 14.8 0.00 0.00 0.00 100 938.0
20260506013224 60 236 13.0 17.4 0.00 0.00 0.00 100 938.0
20260506012824 60 236 11.3 18.2 0.00 0.00 0.00 100 938.0
20260506012424 60 238 12.2 16.5 0.00 0.00 0.00 100 938.0
20260506012021 60 238 11.3 14.8 0.00 0.00 0.00 100 937.9
20260506011621 60 238 10.4 13.0 0.00 0.00 0.00 100 937.9
20260506011221 60 240 11.3 15.6 0.00 0.00 0.00 100 937.9
20260506010818 60 237 9.6 12.2 0.00 0.00 0.00 100 938.0
20260506010418 60 237 11.3 14.8 0.00 0.00 0.00 100 938.0
20260506010015 60 237 9.6 13.0 0.00 0.00 0.00 100 938.0
20260506005615 60 237 11.3 17.4 0.00 0.00 0.00 100 938.0
20260506005215 60 237 8.7 14.8 0.00 0.00 0.00 100 938.0
20260506004815 60 238 8.7 11.3 0.00 0.00 0.00 100 938.0
20260506004415 60 237 9.6 16.5 0.00 0.00 0.00 100 938.0
20260506004012 60 236 10.4 13.9 0.00 0.00 0.00 100 938.0
20260506003612 60 236 10.4 15.6 0.00 0.00 0.00 100 938.0
20260506003212 61 237 8.7 12.2 0.00 0.00 0.00 100 937.9
20260506002812 61 236 7.8 10.4 0.00 0.00 0.00 100 937.9
20260506002412 61 237 10.4 15.6 0.00 0.00 0.00 100 937.9
20260506002009 61 237 10.4 16.5 0.00 0.00 0.00 100 937.9
20260506001609 61 236 9.6 17.4 0.00 0.00 0.00 100 937.9
20260506001209 61 237 10.4 15.6 0.00 0.00 0.00 100 937.9
20260506000809 61 237 9.6 16.5 0.00 0.00 0.00 100 937.9
20260506000409 61 238 9.6 11.3 0.00 0.00 0.00 100 937.9
20260505235955 61 238 9.6 13.9 0.00 0.00 0.00 100 938.0
20260505235555 60 236 8.7 11.3 0.00 0.00 0.00 100 938.0
20260505234755 60 236 9.6 14.8 0.00 0.00 0.00 100 938.0
20260505234355 60 236 9.6 13.0 0.00 0.00 0.00 100 938.0
20260505233952 60 235 9.6 13.9 0.00 0.00 0.00 100 938.1
20260505233552 60 235 8.7 14.8 0.00 0.00 0.00 100 938.1
20260505233153 60 236 8.7 12.2 0.00 0.00 0.00 100 938.2
20260505232753 60 233 7.8 11.3 0.00 0.00 0.00 100 938.2
20260505232353 60 234 8.7 13.9 0.00 0.00 0.00 100 938.2
20260505231950 60 235 7.8 10.4 0.00 0.00 0.00 100 938.3
20260505231549 61 237 7.8 11.3 0.00 0.00 0.00 100 938.3
20260505231149 61 236 8.7 15.6 0.00 0.00 0.00 100 938.3
20260505230749 61 237 7.8 11.3 0.00 0.00 0.00 100 938.3
20260505230346 61 237 8.7 11.3 0.00 0.00 0.00 100 938.4
20260505225943 61 238 7.0 9.6 0.00 0.00 0.00 100 938.4
20260505225543 61 236 7.8 13.9 0.00 0.00 0.00 100 938.4
20260505225143 61 235 10.4 16.5 0.00 0.00 0.00 100 938.5
20260505224743 61 236 9.6 13.0 0.00 0.00 0.00 100 938.5
20260505224344 61 236 9.6 14.8 0.00 0.00 0.00 100 938.5
20260505223941 61 236 8.7 11.3 0.00 0.00 0.00 100 938.5
20260505223541 61 236 8.7 12.2 0.00 0.00 0.00 100 938.6
20260505223141 61 237 8.7 12.2 0.00 0.00 0.00 100 938.6
20260505222741 61 237 8.7 10.4 0.00 0.00 0.00 100 938.6
20260505222341 61 234 7.8 9.6 0.00 0.00 0.00 100 938.7
20260505221938 62 236 9.6 13.9 0.00 0.00 0.00 100 938.7
20260505221538 62 238 9.6 11.3 0.00 0.00 0.00 100 938.7
20260505221138 62 236 9.6 13.0 0.00 0.00 0.00 100 938.7
20260505220738 62 236 8.7 10.4 0.00 0.00 0.00 100 938.7
20260505220338 62 233 8.7 9.6 0.00 0.00 0.00 100 938.7
20260505215936 62 234 8.7 13.0 0.00 0.00 0.00 100 938.7
20260505215535 62 232 8.7 13.0 0.00 0.00 0.00 100 938.7
20260505215135 62 232 7.8 9.6 0.00 0.00 0.00 100 938.7
20260505214735 63 230 8.7 11.3 0.00 0.00 0.00 100 938.8
20260505214335 63 228 9.6 12.2 0.00 0.00 0.00 100 938.8
20260505213932 63 228 8.7 14.8 0.00 0.00 0.00 100 938.8
20260505213532 63 227 9.6 13.9 0.00 0.00 0.00 100 938.8
20260505213132 63 228 10.4 13.9 0.00 0.00 0.00 100 938.8
20260505212732 63 232 8.7 13.0 0.00 0.00 0.00 100 938.8
20260505212323 63 233 10.4 15.6 0.00 0.00 0.00 100 938.8
20260505211920 64 236 10.4 14.8 0.00 0.00 0.00 100 938.8
20260505211520 64 235 12.2 16.5 0.00 0.00 0.00 100 938.9
20260505210721 64 236 11.3 14.8 0.00 0.00 0.00 100 938.9
20260505210321 64 236 13.0 20.9 0.00 0.00 0.00 100 938.9
20260505205914 64 235 13.0 18.2 0.00 0.00 0.00 100 938.9
20260505205514 64 236 12.2 15.6 0.00 0.00 0.00 100 938.9
20260505205114 64 235 12.2 19.1 0.00 0.00 0.00 100 938.9
20260505204714 64 235 12.2 17.4 0.00 0.00 0.00 100 938.9
20260505204314 64 237 12.2 15.6 0.00 0.00 0.00 100 938.9
20260505203911 64 235 12.2 18.2 0.00 0.00 0.00 100 938.9
20260505203511 64 235 12.2 16.5 0.00 0.00 0.00 100 938.9
20260505203111 64 235 11.3 18.2 0.00 0.00 0.00 100 938.9
20260505202711 64 237 13.9 19.1 0.00 0.00 0.00 100 938.9
20260505202311 64 236 13.0 20.9 0.00 0.00 0.00 100 938.9
20260505201908 64 237 13.0 20.9 0.00 0.00 0.00 100 938.9
20260505201508 64 237 13.0 19.1 0.00 0.00 0.00 100 938.9
20260505201108 64 238 15.6 21.7 0.00 0.00 0.00 100 938.9
20260505200709 64 234 13.0 18.2 0.00 0.00 0.00 100 938.9
20260505200308 64 236 12.2 18.2 0.00 0.00 0.00 100 938.9
20260505195906 64 237 13.0 18.2 0.00 0.00 0.00 100 938.9
20260505195506 64 236 11.3 19.1 0.00 0.00 0.00 100 938.9
20260505195106 64 235 13.9 19.1 0.00 0.00 0.00 100 938.9
20260505194706 64 236 12.2 15.6 0.00 0.00 0.00 100 938.9
20260505194306 64 237 13.0 19.1 0.00 0.00 0.00 100 938.9
20260505193903 64 237 12.2 16.5 0.00 0.00 0.00 100 938.9
20260505193503 64 235 11.3 16.5 0.00 0.00 0.00 100 938.9
20260505193103 64 236 12.2 17.4 0.00 0.00 0.00 100 938.9
20260505192703 64 236 10.4 14.8 0.00 0.00 0.00 100 938.9
20260505192305 64 237 12.2 17.4 0.00 0.00 0.00 100 938.9
20260505191900 64 236 14.8 19.1 0.00 0.00 0.00 100 938.9
20260505191500 64 237 16.5 19.1 0.00 0.00 0.00 100 938.9
20260505191100 64 237 16.5 19.1 0.00 0.00 0.00 100 938.9
20260505190700 64 235 17.4 20.9 0.00 0.00 0.00 100 938.9
20260505190300 64 235 16.5 20.0 0.00 0.00 0.00 100 938.9
20260505185857 64 236 16.5 20.0 0.00 0.00 0.00 100 938.9
20260505185454 64 233 16.5 20.0 0.00 0.00 0.00 100 938.9
20260505185054 64 233 18.2 20.9 0.00 0.00 0.00 100 938.9
20260505184642 64 235 17.4 21.7 0.00 0.00 0.00 100 938.9
20260505184242 64 236 18.2 20.0 0.00 0.00 0.00 100 938.8
20260505183839 64 234 17.4 20.0 0.00 0.00 0.00 100 938.9
20260505183439 64 234 19.1 22.6 0.00 0.00 0.00 100 938.8
20260505183040 64 234 18.2 21.7 0.00 0.00 0.00 100 938.8
20260505182640 65 236 18.2 22.6 0.00 0.00 0.00 100 938.8
20260505182240 65 237 19.1 21.7 0.00 0.00 0.00 100 938.8
20260505181837 65 237 16.5 21.7 0.00 0.00 0.00 100 938.8
20260505181437 65 237 19.1 26.1 0.00 0.00 0.00 100 938.8
20260505181037 65 237 19.1 23.5 0.00 0.00 0.00 100 938.8
20260505180637 65 236 16.5 24.3 0.00 0.00 0.00 100 938.8
20260505180237 65 235 15.6 20.9 0.00 0.00 0.00 100 938.9
20260505175834 65 235 18.2 23.5 0.00 0.00 0.00 100 938.9
20260505175434 66 237 18.2 22.6 0.00 0.00 0.00 100 938.8
20260505175034 66 237 20.0 24.3 0.00 0.00 0.00 100 938.9
20260505174634 66 239 20.0 24.3 0.00 0.00 0.00 100 938.9
20260505174234 66 240 19.1 28.7 0.00 0.00 0.00 100 938.9
20260505173831 66 236 19.1 22.6 0.00 0.00 0.00 100 938.9
20260505173431 66 237 18.2 20.9 0.00 0.00 0.00 100 938.9
20260505173031 66 240 19.1 23.5 0.00 0.00 0.00 100 938.9
20260505171829 67 240 20.9 24.3 0.00 0.00 0.00 100 938.9
20260505171428 67 240 20.9 26.1 0.00 0.00 0.00 100 938.9
20260505171028 67 238 23.5 28.7 0.00 0.00 0.00 100 938.9
20260505170628 67 241 20.9 26.1 0.00 0.00 0.00 100 938.9
20260505170228 67 238 20.0 26.9 0.00 0.00 0.00 100 938.9
20260505165825 67 240 22.6 29.5 0.00 0.00 0.00 100 938.9
20260505165426 67 243 20.9 25.2 0.00 0.00 0.00 100 938.9
20260505165022 67 243 20.0 22.6 0.00 0.00 0.00 100 939.0
20260505164622 67 244 20.9 25.2 0.00 0.00 0.00 100 939.0
20260505164222 67 244 19.1 21.7 0.00 0.00 0.00 100 939.0
20260505163819 67 243 21.7 30.4 0.00 0.00 0.00 100 939.0
20260505163419 68 239 20.9 24.3 0.00 0.00 0.00 100 939.0
20260505163019 68 241 19.1 24.3 0.00 0.00 0.00 100 939.0
20260505162619 68 242 24.3 28.7 0.00 0.00 0.00 100 939.1
20260505162219 68 244 24.3 29.5 0.00 0.00 0.00 100 939.0
20260505161816 68 243 20.9 27.8 0.00 0.00 0.00 100 939.0
20260505161416 68 247 23.5 29.5 0.00 0.00 0.00 100 939.1
20260505161008 68 242 25.2 34.8 0.00 0.00 0.00 100 939.1
20260505160608 68 244 20.9 28.7 0.00 0.00 0.00 100 939.2
20260505160208 68 243 21.7 26.9 0.00 0.00 0.00 100 939.2
20260505153003 69 241 20.9 31.3 0.00 0.00 0.00 100 939.4
20260505152603 70 242 22.6 29.5 0.00 0.00 0.00 100 939.4
20260505152203 70 244 23.5 28.7 0.00 0.00 0.00 100 939.4
20260505151800 70 241 20.0 28.7 0.00 0.00 0.00 100 939.5
20260505151400 70 242 25.2 33.0 0.00 0.00 0.00 100 939.6
20260505151000 70 243 18.2 27.8 0.00 0.00 0.00 100 939.5
20260505150559 71 242 22.6 33.0 0.00 0.00 0.00 100 939.5
20260505150159 72 245 26.1 33.0 0.00 0.00 0.00 100 939.5
20260505140548 72 250 23.5 26.9 0.00 0.00 0.00 100 939.8
20260505140148 72 247 25.2 31.3 0.00 0.00 0.00 100 939.8
20260505130128 73 244 20.9 29.5 0.00 0.00 0.00 100 940.3
20260505124925 73 245 21.7 31.3 0.00 0.00 0.00 100 940.4
20260505124525 73 245 20.9 28.7 0.00 0.00 0.00 100 940.5
20260505124122 73 245 23.5 32.2 0.00 0.00 0.00 100 940.4
20260505123719 74 243 20.9 30.4 0.00 0.00 0.00 100 940.5
20260505123319 73 246 20.9 26.1 0.00 0.00 0.00 100 940.5
20260505122920 73 247 20.9 26.1 0.00 0.00 0.00 100 940.5
20260505122519 73 247 25.2 32.2 0.00 0.00 0.00 100 940.6
20260505122119 73 243 24.3 34.8 0.00 0.00 0.00 100 940.6
20260505121716 73 248 23.5 33.0 0.00 0.00 0.00 100 940.7
20260505121316 73 247 24.3 30.4 0.00 0.00 0.00 100 940.7
20260505120917 72 242 21.7 29.5 0.00 0.00 0.00 100 940.7
20260505120517 72 243 23.5 31.3 0.00 0.00 0.00 100 940.8
20260505120117 72 242 20.9 26.9 0.00 0.00 0.00 100 940.8
20260505115714 73 248 25.2 32.2 0.00 0.00 0.00 100 940.8
20260505115314 73 243 17.4 31.3 0.00 0.00 0.00 100 940.8